| time (UTC) | temp F | wind direction | speed knots | gust knots | rain 1hr in | rain 24hr in | rain mn in | humidity % | barometer mb |
| 20260507172547 | 61 | 0 | 0.0 | 0.9 | 0.00 | 0.00 | 0.00 | 80 | 1018.9 |
| 20260507172047 | 61 | 0 | 0.0 | 0.0 | 0.00 | 0.00 | 0.00 | 78 | 1018.9 |
| 20260507171602 | 62 | 0 | 0.0 | 0.0 | 0.00 | 0.00 | 0.00 | 78 | 1018.9 |
| 20260507171045 | 62 | 0 | 0.0 | 0.0 | 0.00 | 0.00 | 0.00 | 77 | 1018.9 |
| 20260507170544 | 62 | 0 | 0.0 | 0.0 | 0.00 | 0.00 | 0.00 | 76 | 1018.8 |
| 20260507170052 | 63 | 0 | 0.0 | 0.0 | 0.00 | 0.00 | 0.00 | 75 | 1018.9 |
| 20260507165543 | 63 | 0 | 0.0 | 0.0 | 0.00 | 0.00 | 0.00 | 75 | 1018.9 |
| 20260507165043 | 63 | 0 | 0.0 | 0.0 | 0.00 | 0.00 | 0.00 | 75 | 1018.9 |
| 20260507164552 | 63 | 0 | 0.0 | 0.0 | 0.00 | 0.00 | 0.00 | 76 | 1018.9 |
| 20260507164043 | 63 | 0 | 0.0 | 0.0 | 0.00 | 0.00 | 0.00 | 75 | 1018.8 |
| 20260507163544 | 63 | 0 | 0.0 | 0.0 | 0.00 | 0.00 | 0.00 | 75 | 1018.9 |
| 20260507163101 | 63 | 0 | 0.0 | 0.0 | 0.00 | 0.00 | 0.00 | 74 | 1018.9 |
| 20260507162543 | 63 | 0 | 0.0 | 0.0 | 0.00 | 0.00 | 0.00 | 74 | 1019.0 |
| 20260507162043 | 63 | 0 | 0.0 | 0.0 | 0.00 | 0.00 | 0.00 | 73 | 1019.0 |
| 20260507161555 | 63 | 0 | 0.0 | 0.0 | 0.00 | 0.00 | 0.00 | 73 | 1019.0 |
| 20260507161044 | 63 | 0 | 0.0 | 0.0 | 0.00 | 0.00 | 0.00 | 72 | 1018.9 |
| 20260507160543 | 64 | 0 | 0.0 | 0.0 | 0.00 | 0.00 | 0.00 | 72 | 1018.9 |
| 20260507160055 | 64 | 0 | 0.0 | 0.0 | 0.00 | 0.00 | 0.00 | 72 | 1018.8 |
| 20260507155543 | 64 | 0 | 0.0 | 0.0 | 0.00 | 0.00 | 0.00 | 75 | 1018.9 |
| 20260507155043 | 64 | 0 | 0.0 | 0.0 | 0.00 | 0.00 | 0.00 | 75 | 1018.9 |
| 20260507154554 | 63 | 0 | 0.0 | 0.0 | 0.00 | 0.00 | 0.00 | 75 | 1018.9 |
| 20260507154044 | 63 | 0 | 0.0 | 0.0 | 0.00 | 0.00 | 0.00 | 74 | 1018.9 |
| 20260507153543 | 63 | 0 | 0.0 | 0.0 | 0.00 | 0.00 | 0.00 | 74 | 1018.9 |
| 20260507153051 | 63 | 0 | 0.0 | 0.0 | 0.00 | 0.00 | 0.00 | 74 | 1018.8 |
| 20260507152543 | 62 | 0 | 0.0 | 0.0 | 0.00 | 0.00 | 0.00 | 75 | 1018.7 |
| 20260507152044 | 62 | 0 | 0.0 | 0.0 | 0.00 | 0.00 | 0.00 | 76 | 1018.9 |
| 20260507151555 | 62 | 0 | 0.0 | 0.0 | 0.00 | 0.00 | 0.00 | 76 | 1018.8 |
| 20260507151043 | 61 | 0 | 0.0 | 0.0 | 0.00 | 0.00 | 0.00 | 77 | 1018.8 |
| 20260507150544 | 61 | 0 | 0.0 | 0.0 | 0.00 | 0.00 | 0.00 | 78 | 1018.8 |
| 20260507150054 | 61 | 0 | 0.0 | 0.0 | 0.00 | 0.00 | 0.00 | 79 | 1018.8 |
| 20260507145544 | 60 | 0 | 0.0 | 0.0 | 0.00 | 0.00 | 0.00 | 80 | 1018.7 |
| 20260507145043 | 59 | 0 | 0.0 | 0.0 | 0.00 | 0.00 | 0.00 | 80 | 1018.8 |
| 20260507144610 | 59 | 0 | 0.0 | 0.0 | 0.00 | 0.00 | 0.00 | 81 | 1018.8 |
| 20260507144044 | 58 | 0 | 0.0 | 0.0 | 0.00 | 0.00 | 0.00 | 81 | 1018.7 |
| 20260507143544 | 58 | 0 | 0.0 | 0.0 | 0.00 | 0.00 | 0.00 | 80 | 1018.7 |
| 20260507143055 | 57 | 0 | 0.0 | 0.0 | 0.00 | 0.00 | 0.00 | 81 | 1018.8 |
| 20260507142543 | 57 | 0 | 0.0 | 0.0 | 0.00 | 0.00 | 0.00 | 81 | 1018.7 |
| 20260507142043 | 57 | 0 | 0.0 | 1.7 | 0.00 | 0.00 | 0.00 | 81 | 1018.7 |
| 20260507141622 | 57 | 0 | 0.0 | 1.7 | 0.00 | 0.00 | 0.00 | 81 | 1018.6 |
| 20260507141043 | 56 | 0 | 0.0 | 1.7 | 0.00 | 0.00 | 0.00 | 80 | 1018.5 |
| 20260507140544 | 56 | 65 | 0.0 | 0.0 | 0.00 | 0.00 | 0.00 | 82 | 1018.6 |
| 20260507140051 | 56 | 0 | 0.0 | 0.0 | 0.00 | 0.00 | 0.00 | 87 | 1018.6 |
| 20260507135548 | 55 | 0 | 0.0 | 0.0 | 0.00 | 0.00 | 0.00 | 88 | 1018.5 |
| 20260507135045 | 55 | 0 | 0.0 | 0.0 | 0.00 | 0.00 | 0.00 | 89 | 1018.4 |
| 20260507134551 | 55 | 0 | 0.0 | 0.0 | 0.00 | 0.00 | 0.00 | 88 | 1018.6 |
| 20260507134043 | 55 | 0 | 0.0 | 0.0 | 0.00 | 0.00 | 0.00 | 88 | 1018.5 |
| 20260507133544 | 55 | 0 | 0.0 | 0.0 | 0.00 | 0.00 | 0.00 | 88 | 1018.4 |
| 20260507133052 | 55 | 0 | 0.0 | 0.9 | 0.00 | 0.00 | 0.00 | 87 | 1018.3 |
| 20260507132543 | 56 | 0 | 0.0 | 1.7 | 0.00 | 0.00 | 0.00 | 86 | 1018.2 |
| 20260507132043 | 56 | 306 | 0.9 | 1.7 | 0.00 | 0.00 | 0.00 | 85 | 1018.2 |
| 20260507131549 | 57 | 306 | 0.0 | 2.6 | 0.00 | 0.00 | 0.00 | 84 | 1018.3 |
| 20260507131043 | 57 | 306 | 0.0 | 2.6 | 0.00 | 0.00 | 0.00 | 82 | 1018.2 |
| 20260507130544 | 58 | 306 | 1.7 | 2.6 | 0.00 | 0.00 | 0.00 | 82 | 1018.2 |
| 20260507130053 | 58 | 306 | 0.9 | 2.6 | 0.00 | 0.00 | 0.00 | 81 | 1018.1 |
| 20260507125544 | 58 | 306 | 0.9 | 2.6 | 0.00 | 0.00 | 0.00 | 81 | 1018.1 |
| 20260507125044 | 58 | 306 | 0.9 | 2.6 | 0.00 | 0.00 | 0.00 | 81 | 1018.1 |
| 20260507124556 | 58 | 306 | 0.9 | 2.6 | 0.00 | 0.00 | 0.00 | 80 | 1018.0 |
| 20260507124046 | 59 | 306 | 0.9 | 2.6 | 0.00 | 0.00 | 0.00 | 80 | 1018.1 |
| 20260507123544 | 59 | 306 | 1.7 | 2.6 | 0.00 | 0.00 | 0.00 | 80 | 1018.2 |
| 20260507123054 | 58 | 306 | 0.9 | 2.6 | 0.00 | 0.00 | 0.00 | 80 | 1018.2 |
| 20260507122544 | 58 | 306 | 0.9 | 2.6 | 0.00 | 0.00 | 0.00 | 80 | 1018.2 |
| 20260507122044 | 58 | 306 | 0.9 | 2.6 | 0.00 | 0.00 | 0.00 | 80 | 1018.2 |
| 20260507121553 | 58 | 306 | 1.7 | 2.6 | 0.00 | 0.00 | 0.00 | 80 | 1018.2 |
| 20260507121043 | 58 | 306 | 1.7 | 2.6 | 0.00 | 0.00 | 0.00 | 81 | 1018.3 |
| 20260507120543 | 58 | 306 | 1.7 | 2.6 | 0.00 | 0.00 | 0.00 | 82 | 1018.3 |
| 20260507120050 | 57 | 306 | 0.9 | 2.6 | 0.00 | 0.00 | 0.00 | 82 | 1018.3 |
| 20260507115543 | 57 | 306 | 1.7 | 2.6 | 0.00 | 0.00 | 0.00 | 83 | 1018.3 |
| 20260507115043 | 57 | 306 | 1.7 | 2.6 | 0.00 | 0.00 | 0.00 | 83 | 1018.4 |
| 20260507114555 | 56 | 306 | 1.7 | 2.6 | 0.00 | 0.00 | 0.00 | 84 | 1018.4 |
| 20260507114047 | 56 | 306 | 0.9 | 2.6 | 0.00 | 0.00 | 0.00 | 85 | 1018.4 |
| 20260507113543 | 55 | 0 | 0.0 | 3.5 | 0.00 | 0.00 | 0.00 | 85 | 1018.4 |
| 20260507113056 | 55 | 306 | 1.7 | 3.5 | 0.00 | 0.00 | 0.00 | 85 | 1018.6 |
| 20260507112543 | 54 | 306 | 1.7 | 4.3 | 0.00 | 0.00 | 0.00 | 86 | 1018.6 |
| 20260507112044 | 54 | 306 | 1.7 | 4.3 | 0.00 | 0.00 | 0.00 | 87 | 1018.5 |
| 20260507111552 | 53 | 309 | 1.7 | 3.5 | 0.00 | 0.00 | 0.00 | 90 | 1018.5 |
| 20260507111047 | 53 | 309 | 1.7 | 3.5 | 0.00 | 0.00 | 0.00 | 91 | 1018.5 |
| 20260507110545 | 52 | 309 | 1.7 | 2.6 | 0.00 | 0.00 | 0.00 | 90 | 1018.6 |
| 20260507110053 | 52 | 309 | 1.7 | 2.6 | 0.00 | 0.00 | 0.00 | 90 | 1018.5 |
| 20260507105543 | 52 | 309 | 0.9 | 1.7 | 0.00 | 0.00 | 0.00 | 89 | 1018.5 |
| 20260507105047 | 53 | 309 | 0.9 | 1.7 | 0.00 | 0.00 | 0.00 | 86 | 1018.4 |
| 20260507104555 | 54 | 309 | 0.9 | 1.7 | 0.00 | 0.00 | 0.00 | 84 | 1018.4 |
| 20260507104047 | 55 | 309 | 0.9 | 1.7 | 0.00 | 0.00 | 0.00 | 84 | 1018.5 |
| 20260507103543 | 56 | 0 | 0.0 | 0.0 | 0.00 | 0.00 | 0.00 | 84 | 1018.4 |
| 20260507103050 | 56 | 0 | 0.0 | 0.0 | 0.00 | 0.00 | 0.00 | 84 | 1018.6 |
| 20260507102544 | 56 | 0 | 0.0 | 0.0 | 0.00 | 0.00 | 0.00 | 84 | 1018.6 |
| 20260507102045 | 56 | 0 | 0.0 | 0.0 | 0.00 | 0.00 | 0.00 | 84 | 1018.6 |
| 20260507101552 | 56 | 0 | 0.0 | 0.0 | 0.00 | 0.00 | 0.00 | 85 | 1018.5 |
| 20260507101047 | 56 | 0 | 0.0 | 0.0 | 0.00 | 0.00 | 0.00 | 85 | 1018.5 |
| 20260507100544 | 56 | 0 | 0.0 | 0.0 | 0.00 | 0.00 | 0.00 | 85 | 1018.4 |
| 20260507100215 | 56 | 0 | 0.0 | 0.0 | 0.00 | 0.00 | 0.00 | 84 | 1018.5 |
| 20260507095545 | 56 | 0 | 0.0 | 0.0 | 0.00 | 0.00 | 0.00 | 83 | 1018.6 |
| 20260507095045 | 56 | 0 | 0.0 | 0.0 | 0.00 | 0.00 | 0.00 | 83 | 1018.5 |
| 20260507094550 | 56 | 0 | 0.0 | 0.0 | 0.00 | 0.00 | 0.00 | 82 | 1018.6 |
| 20260507094045 | 57 | 0 | 0.0 | 0.0 | 0.00 | 0.00 | 0.00 | 82 | 1018.6 |
| 20260507093544 | 57 | 0 | 0.0 | 0.0 | 0.00 | 0.00 | 0.00 | 84 | 1018.7 |
| 20260507093059 | 57 | 0 | 0.0 | 0.0 | 0.00 | 0.00 | 0.00 | 83 | 1018.6 |
| 20260507092545 | 57 | 0 | 0.0 | 0.0 | 0.00 | 0.00 | 0.00 | 84 | 1018.6 |
| 20260507092048 | 56 | 0 | 0.0 | 0.0 | 0.00 | 0.00 | 0.00 | 85 | 1018.8 |
| 20260507091557 | 56 | 0 | 0.0 | 0.0 | 0.00 | 0.00 | 0.00 | 85 | 1018.8 |
| 20260507091044 | 56 | 0 | 0.0 | 0.0 | 0.00 | 0.00 | 0.00 | 85 | 1018.7 |
| 20260507090544 | 56 | 0 | 0.0 | 0.0 | 0.00 | 0.00 | 0.00 | 85 | 1018.8 |
| 20260507090157 | 56 | 0 | 0.0 | 0.0 | 0.00 | 0.00 | 0.00 | 84 | 1018.9 |
| 20260507085540 | 56 | 0 | 0.0 | 0.0 | 0.00 | 0.00 | 0.00 | 84 | 1018.9 |
| 20260507085047 | 56 | 0 | 0.0 | 0.0 | 0.00 | 0.00 | 0.00 | 85 | 1018.9 |
| 20260507084552 | 56 | 0 | 0.0 | 0.0 | 0.00 | 0.00 | 0.00 | 84 | 1019.0 |
| 20260507084044 | 56 | 0 | 0.0 | 0.9 | 0.00 | 0.00 | 0.00 | 84 | 1018.9 |
| 20260507083544 | 56 | 0 | 0.0 | 1.7 | 0.00 | 0.00 | 0.00 | 85 | 1019.0 |
| 20260507083052 | 55 | 309 | 0.0 | 1.7 | 0.00 | 0.00 | 0.00 | 85 | 1019.0 |
| 20260507082546 | 56 | 309 | 0.9 | 1.7 | 0.00 | 0.00 | 0.00 | 85 | 1019.1 |
| 20260507082044 | 56 | 309 | 0.9 | 2.6 | 0.00 | 0.00 | 0.00 | 85 | 1019.1 |
| 20260507081550 | 56 | 309 | 0.9 | 3.5 | 0.00 | 0.00 | 0.00 | 85 | 1019.1 |
| 20260507081044 | 55 | 309 | 1.7 | 3.5 | 0.00 | 0.00 | 0.00 | 85 | 1019.3 |
| 20260507080543 | 55 | 309 | 1.7 | 3.5 | 0.00 | 0.00 | 0.00 | 85 | 1019.1 |
| 20260507075543 | 55 | 309 | 1.7 | 3.5 | 0.00 | 0.00 | 0.00 | 87 | 1019.3 |
| 20260507075045 | 55 | 309 | 1.7 | 3.5 | 0.00 | 0.00 | 0.00 | 88 | 1019.2 |
| 20260507074552 | 55 | 309 | 2.6 | 4.3 | 0.00 | 0.00 | 0.00 | 89 | 1019.1 |
| 20260507074044 | 55 | 309 | 2.6 | 4.3 | 0.00 | 0.00 | 0.00 | 90 | 1019.2 |
| 20260507073545 | 55 | 309 | 2.6 | 4.3 | 0.00 | 0.00 | 0.00 | 91 | 1019.3 |
| 20260507073100 | 54 | 312 | 3.5 | 5.2 | 0.00 | 0.00 | 0.00 | 93 | 1019.3 |
| 20260507072545 | 54 | 311 | 3.5 | 5.2 | 0.00 | 0.00 | 0.00 | 94 | 1019.3 |
| 20260507072045 | 53 | 314 | 3.5 | 5.2 | 0.00 | 0.00 | 0.00 | 94 | 1019.3 |
| 20260507071556 | 53 | 315 | 2.6 | 5.2 | 0.00 | 0.00 | 0.00 | 94 | 1019.3 |
| 20260507071043 | 53 | 315 | 3.5 | 5.2 | 0.00 | 0.00 | 0.00 | 95 | 1019.3 |
| 20260507070544 | 53 | 313 | 2.6 | 5.2 | 0.00 | 0.00 | 0.00 | 96 | 1019.2 |
| 20260507070058 | 52 | 313 | 2.6 | 7.0 | 0.00 | 0.00 | 0.00 | 96 | 1019.4 |
| 20260507065547 | 52 | 315 | 4.3 | 7.0 | 0.00 | 0.00 | 0.00 | 96 | 1019.3 |
| 20260507065043 | 51 | 311 | 3.5 | 7.0 | 0.00 | 0.00 | 0.00 | 96 | 1019.3 |
| 20260507064551 | 51 | 315 | 3.5 | 5.2 | 0.00 | 0.00 | 0.00 | 96 | 1019.2 |
| 20260507064044 | 51 | 317 | 2.6 | 4.3 | 0.00 | 0.00 | 0.00 | 96 | 1019.3 |
| 20260507063545 | 50 | 314 | 2.6 | 4.3 | 0.00 | 0.00 | 0.00 | 96 | 1019.3 |
| 20260507063054 | 50 | 315 | 2.6 | 4.3 | 0.00 | 0.00 | 0.00 | 96 | 1019.3 |
| 20260507062544 | 51 | 315 | 2.6 | 4.3 | 0.00 | 0.00 | 0.00 | 96 | 1019.2 |
| 20260507062044 | 51 | 314 | 1.7 | 4.3 | 0.00 | 0.00 | 0.00 | 96 | 1019.3 |
| 20260507061552 | 50 | 314 | 1.7 | 5.2 | 0.00 | 0.00 | 0.00 | 96 | 1019.4 |
| 20260507061044 | 50 | 314 | 3.5 | 6.1 | 0.00 | 0.00 | 0.00 | 95 | 1019.3 |
| 20260507060543 | 51 | 310 | 2.6 | 7.0 | 0.00 | 0.00 | 0.00 | 96 | 1019.4 |
| 20260507060056 | 52 | 310 | 1.7 | 7.0 | 0.00 | 0.00 | 0.00 | 96 | 1019.4 |
| 20260507055545 | 52 | 313 | 3.5 | 7.0 | 0.00 | 0.00 | 0.00 | 96 | 1019.4 |
| 20260507055044 | 53 | 314 | 3.5 | 7.0 | 0.00 | 0.00 | 0.00 | 96 | 1019.4 |
| 20260507054551 | 52 | 311 | 5.2 | 7.0 | 0.00 | 0.00 | 0.00 | 96 | 1019.4 |
| 20260507054043 | 51 | 316 | 3.5 | 5.2 | 0.00 | 0.00 | 0.00 | 96 | 1019.4 |
| 20260507053544 | 52 | 311 | 0.9 | 2.6 | 0.00 | 0.00 | 0.00 | 96 | 1019.6 |
| 20260507053056 | 52 | 311 | 0.0 | 3.5 | 0.00 | 0.00 | 0.00 | 96 | 1019.5 |
| 20260507052543 | 51 | 312 | 0.9 | 3.5 | 0.00 | 0.00 | 0.00 | 96 | 1019.6 |
| 20260507052045 | 49 | 312 | 1.7 | 3.5 | 0.00 | 0.00 | 0.00 | 96 | 1019.6 |
| 20260507051552 | 49 | 304 | 1.7 | 2.6 | 0.00 | 0.00 | 0.00 | 95 | 1019.6 |
| 20260507051044 | 49 | 304 | 1.7 | 3.5 | 0.00 | 0.00 | 0.00 | 95 | 1019.6 |
| 20260507050544 | 49 | 303 | 1.7 | 4.3 | 0.00 | 0.00 | 0.00 | 95 | 1019.6 |
| 20260507050052 | 49 | 303 | 1.7 | 4.3 | 0.00 | 0.00 | 0.00 | 95 | 1019.6 |
| 20260507045547 | 49 | 304 | 1.7 | 4.3 | 0.00 | 0.00 | 0.00 | 96 | 1019.7 |
| 20260507045045 | 49 | 304 | 1.7 | 4.3 | 0.00 | 0.00 | 0.00 | 96 | 1019.7 |
| 20260507044559 | 49 | 304 | 1.7 | 4.3 | 0.00 | 0.00 | 0.00 | 96 | 1019.6 |
| 20260507044043 | 49 | 306 | 2.6 | 5.2 | 0.00 | 0.00 | 0.00 | 96 | 1019.6 |
| 20260507043543 | 49 | 310 | 2.6 | 7.0 | 0.00 | 0.00 | 0.00 | 96 | 1019.7 |
| 20260507043056 | 50 | 311 | 3.5 | 7.0 | 0.00 | 0.00 | 0.00 | 95 | 1019.5 |
| 20260507042544 | 50 | 309 | 4.3 | 7.0 | 0.00 | 0.00 | 0.00 | 95 | 1019.5 |
| 20260507042047 | 50 | 313 | 4.3 | 7.0 | 0.00 | 0.00 | 0.00 | 95 | 1019.5 |
| 20260507041550 | 50 | 314 | 4.3 | 9.6 | 0.00 | 0.00 | 0.00 | 95 | 1019.4 |
| 20260507041045 | 50 | 312 | 6.1 | 9.6 | 0.00 | 0.00 | 0.00 | 95 | 1019.3 |
| 20260507040547 | 50 | 309 | 6.1 | 9.6 | 0.00 | 0.00 | 0.00 | 95 | 1019.3 |
| 20260507040051 | 50 | 315 | 5.2 | 8.7 | 0.00 | 0.00 | 0.00 | 95 | 1019.2 |
| 20260507035544 | 50 | 309 | 6.1 | 8.7 | 0.00 | 0.00 | 0.00 | 95 | 1019.3 |
| 20260507035044 | 50 | 294 | 4.3 | 7.8 | 0.00 | 0.00 | 0.00 | 95 | 1019.2 |
| 20260507034551 | 50 | 315 | 4.3 | 7.8 | 0.00 | 0.00 | 0.00 | 95 | 1019.1 |
| 20260507034044 | 50 | 306 | 4.3 | 7.8 | 0.00 | 0.00 | 0.00 | 95 | 1019.3 |
| 20260507033546 | 50 | 309 | 4.3 | 7.8 | 0.00 | 0.00 | 0.00 | 95 | 1019.3 |
| 20260507033048 | 50 | 320 | 5.2 | 7.8 | 0.00 | 0.00 | 0.00 | 95 | 1019.1 |
| 20260507032544 | 51 | 314 | 5.2 | 7.8 | 0.00 | 0.00 | 0.00 | 95 | 1019.1 |
| 20260507032046 | 51 | 312 | 2.6 | 7.8 | 0.00 | 0.00 | 0.00 | 95 | 1019.1 |
| 20260507031547 | 51 | 315 | 4.3 | 7.8 | 0.00 | 0.00 | 0.00 | 95 | 1019.1 |
| 20260507031044 | 51 | 315 | 5.2 | 7.8 | 0.00 | 0.00 | 0.00 | 95 | 1018.9 |
| 20260507030548 | 51 | 316 | 5.2 | 7.8 | 0.00 | 0.00 | 0.00 | 95 | 1018.9 |
| 20260507030054 | 51 | 309 | 3.5 | 8.7 | 0.00 | 0.00 | 0.00 | 95 | 1018.9 |
| 20260507025547 | 51 | 316 | 5.2 | 9.6 | 0.00 | 0.00 | 0.00 | 95 | 1018.9 |
| 20260507025044 | 51 | 307 | 6.1 | 9.6 | 0.00 | 0.00 | 0.00 | 95 | 1018.9 |
| 20260507024554 | 51 | 295 | 5.2 | 9.6 | 0.00 | 0.00 | 0.00 | 95 | 1018.8 |
| 20260507024045 | 51 | 304 | 6.1 | 9.6 | 0.00 | 0.00 | 0.00 | 94 | 1018.8 |
| 20260507023544 | 51 | 308 | 6.1 | 9.6 | 0.00 | 0.00 | 0.00 | 94 | 1018.7 |
| 20260507023054 | 51 | 313 | 6.1 | 9.6 | 0.00 | 0.00 | 0.00 | 94 | 1018.8 |
| 20260507022544 | 51 | 311 | 6.1 | 9.6 | 0.00 | 0.00 | 0.00 | 94 | 1018.7 |
| 20260507022043 | 52 | 299 | 7.0 | 9.6 | 0.00 | 0.00 | 0.00 | 94 | 1018.8 |
| 20260507021549 | 52 | 309 | 6.1 | 9.6 | 0.00 | 0.00 | 0.00 | 94 | 1018.8 |
| 20260507021044 | 52 | 315 | 5.2 | 11.3 | 0.00 | 0.00 | 0.00 | 94 | 1018.8 |
| 20260507020544 | 52 | 318 | 7.0 | 11.3 | 0.00 | 0.00 | 0.00 | 93 | 1018.8 |
| 20260507020052 | 52 | 303 | 6.1 | 10.4 | 0.00 | 0.00 | 0.00 | 93 | 1018.9 |
| 20260507015544 | 52 | 300 | 6.1 | 10.4 | 0.00 | 0.00 | 0.00 | 93 | 1018.9 |
| 20260507015043 | 52 | 303 | 6.1 | 9.6 | 0.00 | 0.00 | 0.00 | 93 | 1018.9 |
| 20260507014550 | 53 | 300 | 5.2 | 8.7 | 0.00 | 0.00 | 0.00 | 92 | 1018.9 |
| 20260507014044 | 53 | 308 | 5.2 | 8.7 | 0.00 | 0.00 | 0.00 | 91 | 1018.9 |
| 20260507013544 | 54 | 301 | 4.3 | 8.7 | 0.00 | 0.00 | 0.00 | 91 | 1018.9 |
| 20260507013057 | 54 | 292 | 5.2 | 8.7 | 0.00 | 0.00 | 0.00 | 90 | 1018.9 |
| 20260507012543 | 55 | 300 | 5.2 | 8.7 | 0.00 | 0.00 | 0.00 | 90 | 1018.9 |
| 20260507012044 | 54 | 305 | 3.5 | 8.7 | 0.00 | 0.00 | 0.00 | 90 | 1018.9 |
| 20260507011553 | 54 | 319 | 4.3 | 8.7 | 0.00 | 0.00 | 0.00 | 90 | 1018.9 |
| 20260507011046 | 54 | 300 | 6.1 | 8.7 | 0.00 | 0.00 | 0.00 | 90 | 1018.9 |
| 20260507010544 | 54 | 307 | 3.5 | 10.4 | 0.00 | 0.00 | 0.00 | 90 | 1018.9 |
| 20260507010048 | 55 | 305 | 6.1 | 10.4 | 0.00 | 0.00 | 0.00 | 89 | 1018.9 |
| 20260507005544 | 55 | 309 | 5.2 | 10.4 | 0.00 | 0.00 | 0.00 | 88 | 1018.9 |
| 20260507005044 | 55 | 314 | 6.1 | 10.4 | 0.00 | 0.00 | 0.00 | 87 | 1019.0 |
| 20260507004552 | 56 | 311 | 7.0 | 9.6 | 0.00 | 0.00 | 0.00 | 87 | 1018.9 |
| 20260507004045 | 56 | 312 | 6.1 | 9.6 | 0.00 | 0.00 | 0.00 | 87 | 1018.8 |
| 20260507003547 | 56 | 308 | 7.0 | 9.6 | 0.00 | 0.00 | 0.00 | 87 | 1018.7 |
| 20260507003051 | 56 | 305 | 7.0 | 9.6 | 0.00 | 0.00 | 0.00 | 86 | 1018.7 |
| 20260507002544 | 56 | 306 | 5.2 | 8.7 | 0.00 | 0.00 | 0.00 | 86 | 1018.5 |
| 20260507002043 | 56 | 317 | 6.1 | 8.7 | 0.00 | 0.00 | 0.00 | 86 | 1018.7 |
| 20260507001548 | 57 | 298 | 5.2 | 9.6 | 0.00 | 0.00 | 0.00 | 85 | 1018.7 |
| 20260507001044 | 57 | 316 | 5.2 | 9.6 | 0.00 | 0.00 | 0.00 | 85 | 1018.7 |
| 20260507000546 | 57 | 314 | 5.2 | 9.6 | 0.00 | 0.00 | 0.00 | 84 | 1018.6 |
| 20260507000053 | 58 | 305 | 4.3 | 11.3 | 0.00 | 0.00 | 0.00 | 84 | 1018.7 |
| 20260506235543 | 58 | 304 | 4.3 | 11.3 | 0.00 | 0.00 | 0.00 | 83 | 1018.7 |
| 20260506235048 | 58 | 302 | 7.0 | 11.3 | 0.00 | 0.00 | 0.00 | 82 | 1018.7 |
| 20260506234555 | 59 | 298 | 3.5 | 7.8 | 0.00 | 0.00 | 0.00 | 81 | 1018.6 |
| 20260506234048 | 59 | 298 | 4.3 | 7.0 | 0.00 | 0.00 | 0.00 | 81 | 1018.6 |
| 20260506233544 | 60 | 285 | 4.3 | 7.8 | 0.00 | 0.00 | 0.00 | 80 | 1018.6 |
| 20260506233049 | 60 | 289 | 3.5 | 8.7 | 0.00 | 0.00 | 0.00 | 81 | 1018.7 |
| 20260506232543 | 60 | 299 | 3.5 | 8.7 | 0.00 | 0.00 | 0.00 | 81 | 1018.7 |
| 20260506232044 | 60 | 315 | 5.2 | 8.7 | 0.00 | 0.00 | 0.00 | 80 | 1018.7 |
| 20260506231552 | 60 | 311 | 4.3 | 7.8 | 0.00 | 0.00 | 0.00 | 79 | 1018.8 |
| 20260506231044 | 60 | 304 | 4.3 | 7.8 | 0.00 | 0.00 | 0.00 | 79 | 1018.8 |
| 20260506230543 | 60 | 308 | 4.3 | 8.7 | 0.00 | 0.00 | 0.00 | 80 | 1018.9 |
| 20260506230046 | 60 | 311 | 5.2 | 8.7 | 0.00 | 0.00 | 0.00 | 80 | 1018.9 |
| 20260506225544 | 60 | 297 | 4.3 | 8.7 | 0.00 | 0.00 | 0.00 | 80 | 1019.0 |
| 20260506225043 | 60 | 292 | 5.2 | 7.8 | 0.00 | 0.00 | 0.00 | 79 | 1019.1 |
| 20260506224600 | 60 | 306 | 4.3 | 8.7 | 0.00 | 0.00 | 0.00 | 80 | 1019.2 |
| 20260506224042 | 60 | 293 | 4.3 | 8.7 | 0.00 | 0.00 | 0.00 | 78 | 1019.2 |
| 20260506223546 | 61 | 315 | 4.3 | 8.7 | 0.00 | 0.00 | 0.00 | 77 | 1019.3 |
| 20260506223052 | 62 | 296 | 5.2 | 8.7 | 0.00 | 0.00 | 0.00 | 76 | 1019.2 |
| 20260506222547 | 62 | 298 | 5.2 | 8.7 | 0.00 | 0.00 | 0.00 | 75 | 1019.2 |
| 20260506222044 | 63 | 309 | 4.3 | 8.7 | 0.00 | 0.00 | 0.00 | 75 | 1019.3 |
| 20260506221554 | 63 | 288 | 4.3 | 7.8 | 0.00 | 0.00 | 0.00 | 75 | 1019.3 |
| 20260506221043 | 63 | 291 | 4.3 | 7.8 | 0.00 | 0.00 | 0.00 | 74 | 1019.3 |
| 20260506220544 | 64 | 308 | 3.5 | 7.8 | 0.00 | 0.00 | 0.00 | 74 | 1019.4 |
| 20260506220049 | 64 | 295 | 2.6 | 7.8 | 0.00 | 0.00 | 0.00 | 73 | 1019.4 |
| 20260506215544 | 64 | 304 | 4.3 | 7.8 | 0.00 | 0.00 | 0.00 | 73 | 1019.4 |
| 20260506215043 | 64 | 296 | 3.5 | 7.0 | 0.00 | 0.00 | 0.00 | 74 | 1019.4 |
| 20260506214607 | 64 | 324 | 2.6 | 7.0 | 0.00 | 0.00 | 0.00 | 73 | 1019.6 |
| 20260506214044 | 64 | 301 | 2.6 | 7.0 | 0.00 | 0.00 | 0.00 | 74 | 1019.5 |
| 20260506213544 | 64 | 304 | 2.6 | 7.8 | 0.00 | 0.00 | 0.00 | 74 | 1019.6 |
| 20260506213051 | 63 | 321 | 2.6 | 8.7 | 0.00 | 0.00 | 0.00 | 74 | 1019.6 |
| 20260506212544 | 63 | 298 | 4.3 | 8.7 | 0.00 | 0.00 | 0.00 | 73 | 1019.5 |
| 20260506212043 | 64 | 305 | 4.3 | 7.8 | 0.00 | 0.00 | 0.00 | 73 | 1019.7 |
| 20260506211548 | 64 | 309 | 3.5 | 7.8 | 0.00 | 0.00 | 0.00 | 73 | 1019.6 |
| 20260506211043 | 64 | 326 | 4.3 | 7.8 | 0.00 | 0.00 | 0.00 | 72 | 1019.7 |
| 20260506210543 | 65 | 309 | 4.3 | 7.0 | 0.00 | 0.00 | 0.00 | 72 | 1019.6 |
| 20260506210055 | 64 | 301 | 3.5 | 7.0 | 0.00 | 0.00 | 0.00 | 72 | 1019.7 |
| 20260506205544 | 64 | 319 | 2.6 | 7.8 | 0.00 | 0.00 | 0.00 | 72 | 1019.7 |
| 20260506205044 | 64 | 295 | 3.5 | 7.8 | 0.00 | 0.00 | 0.00 | 71 | 1019.7 |
| 20260506204604 | 65 | 309 | 3.5 | 7.0 | 0.00 | 0.00 | 0.00 | 71 | 1019.8 |
| 20260506204043 | 64 | 325 | 1.7 | 4.3 | 0.00 | 0.00 | 0.00 | 73 | 1019.7 |
| 20260506203544 | 64 | 328 | 1.7 | 6.1 | 0.00 | 0.00 | 0.00 | 71 | 1019.8 |
| 20260506203055 | 64 | 305 | 1.7 | 6.1 | 0.00 | 0.00 | 0.00 | 71 | 1019.8 |
| 20260506202543 | 64 | 333 | 2.6 | 7.0 | 0.00 | 0.00 | 0.00 | 72 | 1020.0 |
| 20260506202045 | 64 | 331 | 2.6 | 8.7 | 0.00 | 0.00 | 0.00 | 72 | 1020.0 |
| 20260506201551 | 64 | 307 | 2.6 | 8.7 | 0.00 | 0.00 | 0.00 | 70 | 1020.0 |
| 20260506201043 | 65 | 318 | 1.7 | 4.3 | 0.00 | 0.00 | 0.00 | 70 | 1020.0 |
| 20260506200544 | 64 | 153 | 1.7 | 4.3 | 0.00 | 0.00 | 0.00 | 71 | 1020.1 |
| 20260506200050 | 64 | 301 | 2.6 | 4.3 | 0.00 | 0.00 | 0.00 | 71 | 1020.1 |
| 20260506195543 | 64 | 276 | 1.7 | 4.3 | 0.00 | 0.00 | 0.00 | 69 | 1020.0 |
| 20260506195046 | 65 | 312 | 1.7 | 7.0 | 0.00 | 0.00 | 0.00 | 67 | 1020.0 |
| 20260506194600 | 66 | 305 | 2.6 | 7.0 | 0.00 | 0.00 | 0.00 | 66 | 1020.1 |
| 20260506194049 | 67 | 316 | 0.9 | 4.3 | 0.00 | 0.00 | 0.00 | 63 | 1020.0 |
| 20260506193544 | 68 | 355 | 0.9 | 3.5 | 0.00 | 0.00 | 0.00 | 62 | 1020.0 |
| 20260506193052 | 69 | 0 | 0.9 | 4.3 | 0.00 | 0.00 | 0.00 | 60 | 1020.0 |
| 20260506192558 | 68 | 78 | 0.9 | 4.3 | 0.00 | 0.00 | 0.00 | 60 | 1020.1 |
| 20260506192044 | 68 | 69 | 1.7 | 3.5 | 0.00 | 0.00 | 0.00 | 61 | 1020.1 |
| 20260506191555 | 67 | 0 | 1.7 | 6.1 | 0.00 | 0.00 | 0.00 | 60 | 1020.2 |
| 20260506191044 | 67 | 108 | 1.7 | 6.1 | 0.00 | 0.00 | 0.00 | 62 | 1020.2 |
| 20260506190543 | 67 | 138 | 1.7 | 6.1 | 0.00 | 0.00 | 0.00 | 61 | 1020.2 |
| 20260506190053 | 67 | 60 | 1.7 | 5.2 | 0.00 | 0.00 | 0.00 | 60 | 1020.2 |
| 20260506185543 | 67 | 90 | 1.7 | 5.2 | 0.00 | 0.00 | 0.00 | 63 | 1020.2 |
| 20260506185043 | 66 | 109 | 0.0 | 4.3 | 0.00 | 0.00 | 0.00 | 67 | 1020.2 |
| 20260506184556 | 66 | 141 | 0.9 | 4.3 | 0.00 | 0.00 | 0.00 | 67 | 1020.2 |
| 20260506184044 | 65 | 61 | 0.0 | 4.3 | 0.00 | 0.00 | 0.00 | 69 | 1020.3 |
| 20260506183545 | 63 | 0 | 0.9 | 4.3 | 0.00 | 0.00 | 0.00 | 72 | 1020.3 |
| 20260506183100 | 63 | 0 | 0.0 | 2.6 | 0.00 | 0.00 | 0.00 | 72 | 1020.3 |
| 20260506182543 | 62 | 317 | 0.9 | 2.6 | 0.00 | 0.00 | 0.00 | 74 | 1020.3 |
| 20260506182043 | 62 | 311 | 0.9 | 2.6 | 0.00 | 0.00 | 0.00 | 74 | 1020.5 |
| 20260506181559 | 62 | 320 | 0.0 | 2.6 | 0.00 | 0.00 | 0.00 | 74 | 1020.5 |
| 20260506181043 | 62 | 207 | 0.9 | 1.7 | 0.00 | 0.00 | 0.00 | 75 | 1020.3 |
| 20260506180544 | 61 | 190 | 0.9 | 1.7 | 0.00 | 0.00 | 0.00 | 75 | 1020.3 |
| 20260506180052 | 61 | 189 | 0.9 | 2.6 | 0.00 | 0.00 | 0.00 | 74 | 1020.2 |
| 20260506175543 | 61 | 0 | 0.0 | 2.6 | 0.00 | 0.00 | 0.00 | 76 | 1020.3 |
| 20260506175047 | 60 | 0 | 0.0 | 0.9 | 0.00 | 0.00 | 0.00 | 77 | 1020.3 |
| 20260506174555 | 60 | 0 | 0.0 | 3.5 | 0.00 | 0.00 | 0.00 | 77 | 1020.3 |
| 20260506174046 | 59 | 0 | 0.9 | 3.5 | 0.00 | 0.00 | 0.00 | 78 | 1020.2 |
| 20260506173544 | 59 | 289 | 0.9 | 3.5 | 0.00 | 0.00 | 0.00 | 78 | 1020.2 |
| 20260506173051 | 59 | 257 | 0.9 | 3.5 | 0.00 | 0.00 | 0.00 | 79 | 1020.2 |